www.pogodaiklimat.ru
ПОГОДА в Серабе

Архив погоды в Серабе (Иран)

Время
(UTC), дата
06 11.06
09 11.06
12 11.06
15 11.06
18 11.06
21 11.06
00 12.06
03 12.06
06 12.06
09 12.06
12 12.06
15 12.06
18 12.06
21 12.06
00 13.06
03 13.06
06 13.06
09 13.06
12 13.06
15 13.06
18 13.06
21 13.06
00 14.06
03 14.06
06 14.06
09 14.06
12 14.06
15 14.06
18 14.06
21 14.06
00 15.06
03 15.06
06 15.06
09 15.06
12 15.06
15 15.06
18 15.06
21 15.06
00 16.06
03 16.06
06 16.06
09 16.06
12 16.06
15 16.06
18 16.06
21 16.06
00 17.06
03 17.06
06 17.06
09 17.06
12 17.06
15 17.06
18 17.06
21 17.06
00 18.06
Ветер
(напр.,м/с)
Видим. Явления Облачность Т
(С)
Тd
(С)
f
(%)
Тe
(С)
Тes
(С)
Комфортность P
(гПа)
Po
(гПа)
Тmin
(С)
Tmax
(С)
R
(мм)
R24
(мм)
S
(см)
С 3 15 км осадки на расстоянии 10/4 200 м
[Cb calv As op]
+15.5 +11.1 75 +15 +16 1011.8 833.1
З 4 8000 м гроза, ливневой дождь 10/5 800 м
[Cb cap As op]
+14.6 +11.5 82 +13 +15 1013.3 834.6 0.7
В 3 8000 м гроза, ливневой дождь 10/5 800 м
[Cb cap As op]
+14.2 +11.9 86 +13 +14 1012.5 833.1 4 3.7
С 2 15 км осадки на расстоянии {гроза, ливн. дождь} 8/5 900 м
[Cb cap Ac As Ci sp]
+15.9 +10.6 71 +16 +16 1009.9 831.3 +11.7 +19.3 3.8
С 1 14 км зарница {гроза, ливн. дождь} 6/4 200 м
[Cb cap Ac As]
+12.2 +10.2 88 +12 +12 1011.0 831.9 0.1 3.8
С 1 14 км {гроза} 5/3 1050 м
[Cb cap Ac As]
+10.8 +8.5 86 +10 +10 1011.7 831.7 3.8
Ю 1 12 км {гроза} 6/3 1050 м
[Cb cap Ac As Ci sp]
+8.8 +7.2 90 +8 +8 1012.6 831.7 3.8
штиль 0 10 км 3/1 1050 м
[Sc Ci sp]
+12.2 +9.2 82 +12 +14 1011.6 832.4 +8.3 +16.6 3.8
В 2 12 км 1/1 1020 м
[Cu hum]
+21.0 +12.4 58 +24 +36 комфорт 1010.0 832.7 3.8
В 2 12 км 4/4 1050 м
[Cu med, cong]
+25.8 +11.5 41 +27 +40 жарко 1008.2 832.1 3.1
СЗ 1 10 км в посл. час гроза 8/5 1050 м
[Cb cap Ac cuf]
+24.1 +14.2 54 +27 +31 жарко 1008.3 831.3 0.1
В 4 12 км 8/5 1080 м
[Cb cap Ac cuf Ci sp]
+22.2 +11.0 49 +24 +24 комфорт 1008.6 831.8 +12.6 +26.8
В 4 12 км 5/3 1080 м
[Cb cap Ci sp]
+18.2 +9.8 58 +18 +18 1007.9 832.4
СЗ 1 14 км 5/3 1080 м
[Cb cap Ci sp]
+13.6 +10.7 83 +14 +14 1008.6 833.1
С 1 14 км 1/1 1050 м
[Sc]
+11.5 +9.4 87 +11 +11 1009.7 832.9
С 2 14 км 3/1 1000 м
[Sc Ci sp]
+13.6 +9.2 75 +13 +15 1010.7 833.8 +10.3 +22.2
СВ 1 16 км 1/1 1000 м
[Cu hum]
+23.1 +11.5 48 +25 +40 комфорт 1009.1 834.1
ЮЗ 2 13 км 5/5 1050 м
[Cb cap]
+26.6 +10.3 36 +27 +38 жарко 1006.8 831.8
В 3 13 км 8/6 1050 м
[Cb cap Ci ing]
+27.4 +11.8 38 +29 +32 жарко 1006.7 831.5
С 3 8000 м гроза, ливневой дождь 9/6 1050 м
[Cb cap As op]
+18.6 +13.2 71 +19 +20 1010.1 832.6 +14.3 +27.6 0.2
ЮВ 4 14 км {гроза, ливн. дождь} 8/5 200 м
[Cb cap Ac As]
+16.1 +10.6 70 +15 +15 1009.5 833.8 3 2.8
С 1 15 км 4/3 1050 м
[Cb cap Ac As]
+12.1 +9.1 82 +12 +12 1008.3 832.6 2.8
С 1 15 км 1/1 1050 м
[Sc]
+10.6 +8.3 86 +10 +10 1008.5 832.5 2.8
СЗ 1 18 км 1/1 1050 м
[Sc]
+14.6 +9.8 73 +15 +17 1010.3 832.8 +8.3 +19.0 2.8
ЮВ 3 20 км 1/1 600 м
[Cu hum Ci sp]
+21.3 +9.8 48 +23 +33 комфорт 1008.3 832.3 2.8
Ю 2 17 км 4/4 1020 м
[Cu med, cong]
+24.8 +7.9 34 +25 +38 комфорт 1007.4 831.3 2.8
С 3 15 км {гроза} 8/4 1020 м
[Cb cap Ac cuf Ci ing]
+23.9 +9.8 41 +25 +29 комфорт 1007.8 831.1 2.8
В 4 15 км 5/3 1020 м
[Cb cap Ac cuf Ci ing]
+22.8 +8.8 41 +24 +25 комфорт 1006.2 830.5 +15.3 +26.9 2.6
ЮВ 2 15 км 6/4 <50 м
[Cb cap Ci sp]
+17.3 +10.4 64 +18 +18 1006.9 831.5
В 2 14 км 4/1 1050 м
[Sc Ci sp]
+14.6 +10.2 75 +14 +14 1006.2 831.1
С 1 14 км 3/1 1000 м
[Sc Ci sp]
+11.4 +8.8 84 +11 +11 1006.7 830.3
С 1 13 км 1/0
[Ci sp]
+14.4 +10.0 75 +15 +17 1006.5 830.7 +9.4 +22.7
ЮЗ 2 17 км 1/1 1000 м
[Cu hum]
+21.8 +9.7 46 +23 +35 комфорт 1005.5 830.4
Ю 2 17 км 3/3 1020 м
[Cu med, cong]
+26.1 +8.1 32 +26 +41 жарко 1004.0 829.5
ЮЗ 1 16 км 5/4 1020 м
[Cu med, cong Ac cuf]
+27.1 +8.5 31 +27 +34 жарко 1003.6 828.6
В 5 16 км 5/3 1020 м
[Cu med, cong Ac cuf]
+24.2 +11.8 46 +26 +26 жарко 1003.6 828.8 +15.1 +29.5
В 3 16 км 1/1 1000 м
[Sc diur, vesp]
+18.6 +9.6 56 +19 +19 1004.5 829.9
С 2 16 км ясно +13.4 +9.6 78 +13 +13 1005.4 830.4
С 2 16 км ясно +11.4 +8.8 84 +10 +10 1005.9 830.5
С 1 14 км ясно +16.1 +10.2 68 +17 +19 1006.9 831.9 +10.1 +24.2
Ю 1 16 км 1/1 1000 м
[Cu hum]
+24.4 +12.3 47 +26 +40 жарко 1005.9 831.9
Ю 2 15 км 3/3 1050 м
[Cu med, cong Ci fib]
+28.8 +8.5 28 +28 +43 жарко 1005.9 831.3
В 1 15 км 8/5 1050 м
[Cb calv Ci sp]
+29.4 +9.5 29 +29 +35 жарко 1005.3 830.7
В 6 12 км 8/6 1080 м
[Cb calv Ac cuf Ci sp]
+25.7 +10.3 38 +27 +27 жарко 1005.4 831.1 +16.3 +31.1
ЮВ 3 12 км гроза без осадков 9/6 <50 м
[Cb cap As op]
+17.9 +9.0 56 +18 +18 1009.4 834.4
СВ 3 14 км 8/5 1050 м
[Cb cap Ac As]
+18.9 +8.2 50 +20 +20 1007.3 834.1
СЗ 2 14 км 8/5 1050 м
[Cb cap Ac As]
+16.7 +9.4 62 +17 +17 1007.5 833.9
С 1 20 км 4/1 1050 м
[Sc Ac As]
+17.6 +10.2 62 +19 +20 1009.4 834.8 +12.7 +25.4
В 2 22 км ясно +23.6 +11.3 46 +25 +39 комфорт 1011.3 835.9
ЮЗ 2 22 км 3/3 1050 м
[Cu med, cong]
+28.4 +7.0 26 +28 +42 жарко 1008.9 835.2
В 2 22 км 5/5 1050 м
[Cb calv]
+30.0 +8.4 26 +29 +35 жарко 1007.6 834.1
СВ 3 22 км 3/3 1050 м
[Sc diur, vesp]
+25.6 +10.6 39 +27 +27 жарко 1008.7 834.2 +17.9 +31.6
СВ 2 22 км 1/1 1000 м
[Sc diur, vesp]
+21.8 +10.6 49 +24 +24 комфорт 1009.2 835.2
штиль 0 22 км ясно +15.5 +11.1 75 +15 +15 1009.7 835.2
С 1 22 км ясно +12.8 +8.7 76 +13 +13 1010.2 835.2
Местоположение метеостанции Сераб (Иран): широта 37.93 долгота 47.53 высота над уровнем моря 1682 м.
В архиве по умолчанию представлена погода в Серабе за последнюю неделю. Архивные данные за месяц целиком и за предыдущие месяцы, начиная с января 2011 года, Вы можете получить, выбрав интересующий диапазон дат из раскрывающегося списка и нажав кнопку "Найти!".
*Определитесь, кто Вы:
Внимание! Время в таблицах - всемирное. Для получения местного времени необходимо прибавить поправку, которая равна 3.5 ч.
Некоторые строки с данными для отдельных станций могут быть выделены курсивом. Это означает, что фактические данные отсутствуют по различным причинам, а приведенные значения являются расчетными модельными данными для данного пункта наблюдений.
Смотрите также архив погоды в соседних городах и на ближайших метеорологических станциях:
Партнеры нашего сайта:      
Пояснения к столбцам:
  • Ветер - указаны скорость ветра в м/с - средняя за 10 мин, порывы в срок и между сроками (в фигурных скобках) и направление, откуда дует ветер: С - северный,
  • СВ - северо-восточный, В - восточный, ЮВ - юго-восточный, Ю - южный, ЮЗ - юго-западный, З - западный, СЗ - северо-западный.
  • Видимость - горизонтальная дальность видимости в метрах или километрах. При видимости от 1 до 10 км при отсутствии осадков обычно наблюдается дымка, при ухудшении видимости до 1 км и менее - туман. В сухую погоду видимость может ухудшаться дымом, пылью или мглою.
  • Явления - указаны атмосферные явления, наблюдавшиеся в срок или в последний час перед сроком; фигурными скобками обозначены явления, наблюдавшиеся между сроками (за 1-3 часа до срока); квадратными скобками обозначены град или гололедные отложения с указанием их диаметра в мм.
  • Облачность - указаны через наклонную черту общая и нижняя облачность в баллах и высота нижней границы облаков в метрах; квадратными скобками обозначены формы облаков: Ci - перистые, Cs - перисто-слоистые, Cc - перисто-кучевые, Ac - высококучевые, As - высокослоистые, Sc - слоисто-кучевые, Ns - слоисто-дождевые, Cu - кучевые, Cb - кучево-дождевые. Подробнее классификацию облаков см. в Атласе облаков (PDF).
  • T - Температура воздуха - температура, измеренная на высоте 2 м над землей.
  • Td - Температура точки росы - температура, при понижении до которой содержащийся в воздухе водяной пар достигнет насыщения.
  • f - Относительная влажность воздуха - влажноcть воздуха, измеренная на высоте 2 м над землей.
  • Te - Эффективная температура - температура, которую ощущает одетый по сезону человек в тени. Характеристика душности погоды. При расчете учитывается влияние влажности воздуха и скорости ветра на теплоощущения человека.
  • Tes - Эффективная температура на солнце - температура, которую ощущает человек, с поправкой на солнечный нагрев. Характеристика знойности погоды. Зависит от высоты солнца над горизонтом, облачности и скорости ветра. Ночью, в пасмурную погоду, а также при ветре 12 м/с и более поправка равна нулю.
  • P - Атмосферное давление - приведенное к уровню моря атмосферное давление.
  • Po - Атмосферное давление - измеренное на уровне метеостанции атмосферное давление.
  • Tmin - Минимальная температура - минимум температуры воздуха на высоте 2 м над землей.
  • Tmax - Максимальная температура - максимум температуры воздуха на высоте 2 м над землей.
  • R - Количество осадков - Количество выпавших осадков за период времени, мм. При наведении курсора мыши на число - период времени, за который выпало указанное количество осадков.
  • R24 - Количество осадков - Количество выпавших осадков за 24 часа, мм.
  • S - Снежный покров - Высота снежного покрова, см. При наведении курсора мыши на число - состояние снежного покрова и степень покрытия местности в баллах.